Location: Unspecified
(0.0000°N, 0.0000°E)
Time: 21:39:05
(UTC-05:00)

Hubble Space Telescope - Visible Passes

Search period start: 25 September 2018 00:00
Search period end: 05 October 2018 00:00
Orbit: 537 x 541 km, 28.5° (Epoch: 24 September)

Date Brightness Start Highest point End Pass type
(mag) Time Alt. Az. Time Alt. Az. Time Alt. Az.
29 Sep 3.4 14:40:13 10° NNW 14:40:35 12° NNW 14:40:35 12° NNW visible
30 Sep 2.7 14:29:27 10° NW 14:31:11 21° NNW 14:31:11 21° NNW visible
01 Oct 1.6 14:18:49 10° NW 14:21:52 38° N 14:21:52 38° N visible
02 Oct 0.6 14:08:18 10° NW 14:12:22 66° NNE 14:12:39 63° NE visible
03 Oct 3.5 00:23:49 10° S 00:25:57 14° SSE 00:28:04 10° ESE visible
03 Oct 0.7 13:57:52 10° WNW 14:02:00 85° SSW 14:03:30 38° SE visible
04 Oct 3.2 00:12:41 10° SSW 00:15:37 18° SSE 00:18:32 10° ESE visible
04 Oct 1.2 13:47:32 10° WNW 13:51:36 58° SSW 13:54:22 19° SE visible
